SQP361 LUKK-EPKK

Flight info

Callsign SQP361
Flight time 1h 34m
Altitude 38000
Route UNIRA DCT KUSIS DCT LENOV
Aircraft B737/M-SDE2E3FGHIRWXY/LB1

Departure

Time 2026-05-05 08:17
Airport Chişinău International Airport (LUKK)

Arrival

Time 2026-05-05 09:51
Airport Kraków John Paul II International Airport (EPKK)
Time Latitude Longitude Altitude Speed Heading
2026-05-05 07:55 46.93357 28.93728 307 ft 0 kts
2026-05-05 08:10 46.93359 28.93728 307 ft 0 kts
2026-05-05 08:10 46.93364 28.93729 306 ft 4 kts
2026-05-05 08:11 46.93395 28.93718 305 ft 4 kts 307°
2026-05-05 08:11 46.93402 28.93687 306 ft 2 kts 282°
2026-05-05 08:11 46.93406 28.93653 308 ft 4 kts 278°
2026-05-05 08:11 46.93413 28.93584 310 ft 8 kts 277°
2026-05-05 08:12 46.93410 28.93498 312 ft 8 kts 238°
2026-05-05 08:12 46.93343 28.93473 314 ft 10 kts 186°
2026-05-05 08:12 46.93270 28.93460 315 ft 11 kts 186°
2026-05-05 08:12 46.93198 28.93448 317 ft 11 kts 185°
2026-05-05 08:13 46.93145 28.93517 316 ft 13 kts 97°
2026-05-05 08:13 46.93130 28.93705 309 ft 23 kts 96°
2026-05-05 08:13 46.93108 28.93960 304 ft 26 kts 97°
2026-05-05 08:13 46.93087 28.94213 299 ft 25 kts 96°
2026-05-05 08:14 46.93065 28.94468 294 ft 24 kts 97°
2026-05-05 08:14 46.93043 28.94712 290 ft 23 kts 97°
2026-05-05 08:14 46.93025 28.94939 285 ft 16 kts 97°
2026-05-05 08:14 46.93014 28.95068 281 ft 10 kts 100°
2026-05-05 08:15 46.92977 28.95108 280 ft 6 kts 180°
2026-05-05 08:15 46.92936 28.95108 280 ft 6 kts 179°
2026-05-05 08:15 46.92865 28.95111 279 ft 13 kts 182°
2026-05-05 08:15 46.92820 28.95052 280 ft 8 kts 258°
2026-05-05 08:16 46.92817 28.94932 283 ft 22 kts 268°
2026-05-05 08:16 46.92805 28.94339 296 ft 92 kts 268°
2026-05-05 08:16 46.92780 28.93091 328 ft 149 kts 268°
2026-05-05 08:16 46.92748 28.91441 661 ft 169 kts 267°
2026-05-05 08:17 46.92719 28.89753 1350 ft 168 kts 266°
2026-05-05 08:17 46.92681 28.88031 1808 ft 178 kts 266°
2026-05-05 08:17 46.92647 28.86146 2230 ft 191 kts 268°
2026-05-05 08:17 46.92587 28.84130 2603 ft 208 kts 268°
2026-05-05 08:18 46.92547 28.81971 3109 ft 219 kts 269°
2026-05-05 08:18 46.92509 28.79742 3767 ft 224 kts 269°
2026-05-05 08:18 46.92462 28.77388 4216 ft 239 kts 270°
2026-05-05 08:18 46.92413 28.74907 4630 ft 255 kts 270°
2026-05-05 08:19 46.92358 28.72229 5066 ft 271 kts 270°
2026-05-05 08:19 46.92544 28.69483 5632 ft 276 kts 289°
2026-05-05 08:19 46.93267 28.66897 6340 ft 277 kts 299°
2026-05-05 08:19 46.94114 28.64383 7070 ft 280 kts 300°
2026-05-05 08:20 46.94946 28.61810 7803 ft 284 kts 298°
2026-05-05 08:20 46.95746 28.59176 8542 ft 288 kts 297°
2026-05-05 08:20 46.96534 28.56473 9301 ft 292 kts 296°
2026-05-05 08:20 46.97315 28.53748 10070 ft 296 kts 297°
2026-05-05 08:21 46.98129 28.50917 10676 ft 306 kts 297°
2026-05-05 08:21 46.98972 28.47991 11151 ft 321 kts 297°
2026-05-05 08:21 46.99851 28.44952 11620 ft 336 kts 297°
2026-05-05 08:21 47.00775 28.41750 12302 ft 344 kts 297°
2026-05-05 08:22 47.01701 28.38525 13083 ft 348 kts 297°
2026-05-05 08:22 47.02636 28.35272 13871 ft 352 kts 297°
2026-05-05 08:22 47.03587 28.31960 14625 ft 357 kts 297°
2026-05-05 08:22 47.04559 28.28569 15434 ft 361 kts 296°
2026-05-05 08:23 47.05526 28.25195 16215 ft 365 kts 296°
2026-05-05 08:23 47.06510 28.21753 16986 ft 369 kts 296°
2026-05-05 08:23 47.07490 28.18324 17720 ft 373 kts 296°
2026-05-05 08:23 47.08495 28.14798 18467 ft 376 kts 296°
2026-05-05 08:24 47.09504 28.11255 19178 ft 380 kts 296°
2026-05-05 08:24 47.10523 28.07674 19882 ft 384 kts 296°
2026-05-05 08:24 47.11543 28.04087 20573 ft 387 kts 295°
2026-05-05 08:24 47.12591 28.00396 21229 ft 392 kts 295°
2026-05-05 08:25 47.13629 27.96735 21863 ft 396 kts 295°
2026-05-05 08:25 47.14693 27.92991 22483 ft 400 kts 295°
2026-05-05 08:25 47.15761 27.89218 23098 ft 404 kts 295°
2026-05-05 08:25 47.16746 27.85319 23683 ft 410 kts 291°
2026-05-05 08:26 47.17532 27.81302 24298 ft 414 kts 287°
2026-05-05 08:26 47.18189 27.77180 24872 ft 418 kts 285°
2026-05-05 08:26 47.18804 27.73011 25446 ft 421 kts 284°
2026-05-05 08:26 47.19412 27.68807 26008 ft 424 kts 284°
2026-05-05 08:27 47.20026 27.64566 26543 ft 427 kts 284°
2026-05-05 08:27 47.20652 27.60302 27040 ft 430 kts 284°
2026-05-05 08:27 47.21287 27.56012 27527 ft 433 kts 285°
2026-05-05 08:27 47.21936 27.51652 28047 ft 436 kts 285°
2026-05-05 08:28 47.22589 27.47277 28500 ft 440 kts 285°
2026-05-05 08:28 47.23240 27.42900 28966 ft 443 kts 285°
2026-05-05 08:28 47.23900 27.38461 29448 ft 445 kts 285°
2026-05-05 08:28 47.24561 27.34033 29925 ft 447 kts 284°
2026-05-05 08:29 47.25225 27.29594 30351 ft 450 kts 285°
2026-05-05 08:29 47.25901 27.25060 30754 ft 453 kts 285°
2026-05-05 08:29 47.26566 27.20587 31168 ft 455 kts 284°
2026-05-05 08:30 47.27914 27.11441 32257 ft 452 kts 284°
2026-05-05 08:30 47.28580 27.06915 32734 ft 452 kts 285°
2026-05-05 08:30 47.29246 27.02365 33215 ft 451 kts 284°
2026-05-05 08:30 47.29916 26.97790 33692 ft 450 kts 285°
2026-05-05 08:31 47.30583 26.93218 34170 ft 449 kts 285°
2026-05-05 08:31 47.31236 26.88718 34775 ft 443 kts 285°
2026-05-05 08:31 47.31875 26.84307 35286 ft 439 kts 285°
2026-05-05 08:31 47.32518 26.79860 35674 ft 438 kts 284°
2026-05-05 08:32 47.33152 26.75471 36027 ft 437 kts 284°
2026-05-05 08:32 47.33774 26.71147 36356 ft 437 kts 284°
2026-05-05 08:32 47.34406 26.66736 36782 ft 436 kts 284°
2026-05-05 08:32 47.35027 26.62380 37219 ft 435 kts 284°
2026-05-05 08:33 47.35643 26.58059 37662 ft 434 kts 284°
2026-05-05 08:33 47.36262 26.53715 38020 ft 434 kts 284°
2026-05-05 08:33 47.36884 26.49329 38030 ft 437 kts 284°
2026-05-05 08:34 47.38108 26.40632 38035 ft 431 kts 284°
2026-05-05 08:34 47.39318 26.32008 38039 ft 433 kts 283°
2026-05-05 08:35 47.40527 26.23345 38041 ft 433 kts 283°
2026-05-05 08:35 47.41734 26.14655 38046 ft 432 kts 283°
2026-05-05 08:36 47.42924 26.06026 38052 ft 432 kts 283°
2026-05-05 08:36 47.44109 25.97349 38055 ft 431 kts 283°
2026-05-05 08:37 47.45292 25.88652 38052 ft 431 kts 283°
2026-05-05 08:37 47.46457 25.80022 38067 ft 431 kts 284°
2026-05-05 08:38 47.47625 25.71342 38075 ft 431 kts 283°
2026-05-05 08:38 47.48775 25.62744 38072 ft 429 kts 283°
2026-05-05 08:39 47.49927 25.54079 38091 ft 430 kts 283°
2026-05-05 08:39 47.51065 25.45463 38084 ft 428 kts 283°
2026-05-05 08:40 47.52202 25.36808 38078 ft 429 kts 283°
2026-05-05 08:40 47.53322 25.28187 38074 ft 428 kts 283°
2026-05-05 08:41 47.54440 25.19569 38070 ft 428 kts 283°
2026-05-05 08:41 47.55557 25.10900 38078 ft 427 kts 283°
2026-05-05 08:42 47.56662 25.02276 38083 ft 427 kts 283°
2026-05-05 08:42 47.57756 24.93675 38082 ft 427 kts 283°
2026-05-05 08:43 47.58851 24.85022 38073 ft 426 kts 283°
2026-05-05 08:43 47.59934 24.76421 38072 ft 426 kts 283°
2026-05-05 08:44 47.61003 24.67868 38073 ft 426 kts 283°
2026-05-05 08:44 47.62072 24.59250 38067 ft 426 kts 283°
2026-05-05 08:45 47.63129 24.50632 38066 ft 425 kts 283°
2026-05-05 08:45 47.64179 24.42064 38063 ft 425 kts 283°
2026-05-05 08:46 47.65228 24.33466 38064 ft 424 kts 282°
2026-05-05 08:46 47.66266 24.24881 38064 ft 424 kts 282°
2026-05-05 08:47 47.67297 24.16303 38052 ft 423 kts 282°
2026-05-05 08:47 47.68317 24.07757 38048 ft 423 kts 282°
2026-05-05 08:48 47.69333 23.99175 38055 ft 424 kts 281°
2026-05-05 08:48 47.70340 23.90608 38052 ft 422 kts 282°
2026-05-05 08:49 47.71345 23.82007 38056 ft 422 kts 282°
2026-05-05 08:49 47.72336 23.73468 38065 ft 422 kts 282°
2026-05-05 08:50 47.73322 23.64927 38060 ft 422 kts 282°
2026-05-05 08:50 47.74305 23.56319 38059 ft 422 kts 282°
2026-05-05 08:51 47.75281 23.47746 38054 ft 422 kts 282°
2026-05-05 08:51 47.76250 23.39179 38042 ft 421 kts 282°
2026-05-05 08:52 47.77215 23.30594 38039 ft 422 kts 281°
2026-05-05 08:52 47.78172 23.21994 38033 ft 421 kts 281°
2026-05-05 08:53 47.79113 23.13470 38038 ft 421 kts 281°
2026-05-05 08:53 47.80051 23.04896 38035 ft 421 kts 281°
2026-05-05 08:54 47.80990 22.96306 38028 ft 421 kts 281°
2026-05-05 08:54 47.81921 22.87727 38029 ft 420 kts 281°
2026-05-05 08:55 47.82841 22.79178 38023 ft 420 kts 281°
2026-05-05 08:55 47.83760 22.70579 38020 ft 420 kts 281°
2026-05-05 08:56 47.84665 22.62059 38021 ft 419 kts 281°
2026-05-05 08:56 47.85563 22.53525 38014 ft 419 kts 281°
2026-05-05 08:57 47.86835 22.45078 38011 ft 417 kts 292°
2026-05-05 08:57 47.88080 22.41252 38015 ft 415 kts 303°
2026-05-05 08:57 47.89751 22.37779 38015 ft 414 kts 311°
2026-05-05 08:58 47.93957 22.31954 38016 ft 413 kts 324°
2026-05-05 08:58 47.98770 22.27356 38018 ft 413 kts 329°
2026-05-05 08:59 48.03708 22.23043 38023 ft 413 kts 329°
2026-05-05 08:59 48.08643 22.18685 38022 ft 411 kts 329°
2026-05-05 09:00 48.13539 22.14276 38019 ft 411 kts 328°
2026-05-05 09:00 48.18399 22.09844 38014 ft 412 kts 328°
2026-05-05 09:01 48.23275 22.05365 38012 ft 412 kts 328°
2026-05-05 09:01 48.28173 22.00849 38009 ft 412 kts 328°
2026-05-05 09:02 48.33031 21.96359 38007 ft 412 kts 328°
2026-05-05 09:02 48.37902 21.91847 38005 ft 412 kts 328°
2026-05-05 09:03 48.42783 21.87313 38008 ft 412 kts 328°
2026-05-05 09:03 48.47631 21.82801 38007 ft 412 kts 328°
2026-05-05 09:04 48.52501 21.78255 38005 ft 413 kts 328°
2026-05-05 09:04 48.57383 21.73692 38003 ft 413 kts 327°
2026-05-05 09:05 48.62252 21.69127 38003 ft 413 kts 327°
2026-05-05 09:05 48.67124 21.64550 37839 ft 413 kts 327°
2026-05-05 09:05 48.69511 21.62303 37415 ft 408 kts 327°
2026-05-05 09:06 48.71895 21.60056 36909 ft 403 kts 327°
2026-05-05 09:06 48.74273 21.57813 36421 ft 401 kts 327°
2026-05-05 09:06 48.76654 21.55565 35878 ft 401 kts 327°
2026-05-05 09:06 48.79015 21.53334 35374 ft 399 kts 327°
2026-05-05 09:07 48.81350 21.51125 34900 ft 397 kts 327°
2026-05-05 09:07 48.83703 21.48897 34364 ft 395 kts 327°
2026-05-05 09:07 48.86017 21.46704 33867 ft 391 kts 327°
2026-05-05 09:07 48.88312 21.44525 33386 ft 387 kts 327°
2026-05-05 09:08 48.90567 21.42385 32925 ft 383 kts 327°
2026-05-05 09:08 48.92815 21.40248 32452 ft 380 kts 328°
2026-05-05 09:08 48.95058 21.38113 31982 ft 376 kts 328°
2026-05-05 09:08 48.97236 21.36038 31527 ft 373 kts 328°
2026-05-05 09:09 48.99427 21.33948 31065 ft 369 kts 327°
2026-05-05 09:09 49.01602 21.31872 30600 ft 366 kts 327°
2026-05-05 09:09 49.03727 21.29842 30165 ft 363 kts 327°
2026-05-05 09:09 49.05853 21.27807 29724 ft 361 kts 327°
2026-05-05 09:10 49.07962 21.25786 29275 ft 358 kts 327°
2026-05-05 09:10 49.10075 21.23761 28822 ft 356 kts 327°
2026-05-05 09:10 49.12159 21.21760 28387 ft 354 kts 327°
2026-05-05 09:10 49.14204 21.19793 27953 ft 352 kts 327°
2026-05-05 09:11 49.16288 21.17788 27502 ft 350 kts 327°
2026-05-05 09:11 49.18319 21.15831 27071 ft 348 kts 327°
2026-05-05 09:11 49.20364 21.13857 26642 ft 345 kts 327°
2026-05-05 09:11 49.22358 21.11931 26214 ft 344 kts 327°
2026-05-05 09:12 49.24384 21.09972 25783 ft 341 kts 326°
2026-05-05 09:12 49.26374 21.08048 25354 ft 340 kts 327°
2026-05-05 09:12 49.28367 21.06121 24924 ft 338 kts 326°
2026-05-05 09:12 49.30317 21.04232 24502 ft 336 kts 326°
2026-05-05 09:13 49.32250 21.02262 24068 ft 334 kts 323°
2026-05-05 09:13 49.34052 21.00054 23646 ft 331 kts 316°
2026-05-05 09:13 49.35653 20.97537 23230 ft 328 kts 310°
2026-05-05 09:13 49.37137 20.94883 22816 ft 326 kts 308°
2026-05-05 09:14 49.38560 20.92233 22408 ft 324 kts 308°
2026-05-05 09:14 49.39996 20.89545 21995 ft 323 kts 307°
2026-05-05 09:14 49.41411 20.86905 21586 ft 321 kts 308°
2026-05-05 09:14 49.42815 20.84299 21184 ft 320 kts 308°
2026-05-05 09:15 49.44231 20.81685 20778 ft 318 kts 308°
2026-05-05 09:15 49.45653 20.79065 20372 ft 317 kts 308°
2026-05-05 09:15 49.47059 20.76475 19969 ft 315 kts 308°
2026-05-05 09:15 49.48454 20.73914 19569 ft 313 kts 308°
2026-05-05 09:16 49.49842 20.71366 19172 ft 312 kts 307°
2026-05-05 09:16 49.51219 20.68831 18773 ft 310 kts 307°
2026-05-05 09:16 49.52594 20.66303 18379 ft 309 kts 307°
2026-05-05 09:16 49.53962 20.63783 17982 ft 307 kts 307°
2026-05-05 09:17 49.55322 20.61269 17588 ft 306 kts 307°
2026-05-05 09:17 49.56683 20.58751 17191 ft 304 kts 307°
2026-05-05 09:17 49.58023 20.56273 16915 ft 302 kts 307°
2026-05-05 09:17 49.59367 20.53793 16436 ft 305 kts 308°
2026-05-05 09:18 49.60968 20.51634 15762 ft 316 kts 327°
2026-05-05 09:18 49.63016 20.50256 15117 ft 320 kts 338°
2026-05-05 09:18 49.65114 20.49216 14561 ft 320 kts 340°
2026-05-05 09:18 49.67213 20.48193 14000 ft 318 kts 339°
2026-05-05 09:19 49.69310 20.47118 13446 ft 316 kts 338°
2026-05-05 09:19 49.71379 20.46000 12922 ft 314 kts 337°
2026-05-05 09:19 49.73407 20.44867 12427 ft 310 kts 337°
2026-05-05 09:19 49.75402 20.43734 11921 ft 308 kts 336°
2026-05-05 09:20 49.77413 20.42586 11404 ft 305 kts 336°
2026-05-05 09:20 49.79379 20.41464 10928 ft 302 kts 336°
2026-05-05 09:20 49.81352 20.40340 10436 ft 299 kts 337°
2026-05-05 09:20 49.83262 20.39252 10092 ft 291 kts 336°
2026-05-05 09:21 49.85129 20.38192 9710 ft 286 kts 337°
2026-05-05 09:21 49.86993 20.37130 9259 ft 284 kts 337°
2026-05-05 09:21 49.88827 20.36083 8800 ft 282 kts 337°
2026-05-05 09:21 49.90661 20.35035 8403 ft 277 kts 337°
2026-05-05 09:22 49.92451 20.34010 8055 ft 272 kts 336°
2026-05-05 09:22 49.94195 20.33011 7732 ft 266 kts 337°
2026-05-05 09:22 49.95917 20.32023 7430 ft 260 kts 336°
2026-05-05 09:22 49.97582 20.31068 7140 ft 255 kts 337°
2026-05-05 09:23 49.99250 20.30110 6850 ft 253 kts 337°
2026-05-05 09:23 50.00885 20.29167 6580 ft 252 kts 337°
2026-05-05 09:23 50.02527 20.28223 6311 ft 250 kts 337°
2026-05-05 09:23 50.04150 20.27291 6047 ft 249 kts 337°
2026-05-05 09:24 50.05768 20.26360 5779 ft 249 kts 337°
2026-05-05 09:24 50.07380 20.25432 5513 ft 249 kts 338°
2026-05-05 09:24 50.09014 20.24493 5246 ft 247 kts 338°
2026-05-05 09:24 50.10616 20.23565 4983 ft 246 kts 336°
2026-05-05 09:25 50.12121 20.22337 4720 ft 241 kts 320°
2026-05-05 09:25 50.13073 20.20312 4478 ft 232 kts 285°
2026-05-05 09:25 50.13186 20.17886 4238 ft 224 kts 259°
2026-05-05 09:25 50.12861 20.15553 4006 ft 220 kts 255°
2026-05-05 09:26 50.12539 20.13228 3794 ft 217 kts 256°
2026-05-05 09:26 50.12243 20.10983 3687 ft 209 kts 256°
2026-05-05 09:26 50.11951 20.08820 3589 ft 201 kts 256°
2026-05-05 09:26 50.11659 20.06696 3479 ft 200 kts 255°
2026-05-05 09:27 50.11376 20.04626 3386 ft 191 kts 256°
2026-05-05 09:27 50.11108 20.02629 3277 ft 189 kts 255°
2026-05-05 09:27 50.10831 20.00628 3165 ft 185 kts 256°
2026-05-05 09:27 50.10577 19.98764 3031 ft 168 kts 256°
2026-05-05 09:28 50.10345 19.97068 2965 ft 154 kts 256°
2026-05-05 09:28 50.10127 19.95486 2761 ft 144 kts 256°
2026-05-05 09:28 50.09919 19.93990 2573 ft 141 kts 255°
2026-05-05 09:28 50.09706 19.92487 2385 ft 142 kts 255°
2026-05-05 09:29 50.09506 19.91008 2200 ft 142 kts 256°
2026-05-05 09:29 50.09303 19.89511 2014 ft 141 kts 255°
2026-05-05 09:29 50.09096 19.88021 1827 ft 141 kts 255°
2026-05-05 09:29 50.08889 19.86531 1648 ft 141 kts 254°
2026-05-05 09:30 50.08679 19.85047 1472 ft 142 kts 255°
2026-05-05 09:30 50.08477 19.83548 1267 ft 139 kts 255°
2026-05-05 09:30 50.08274 19.82098 1102 ft 137 kts 256°
2026-05-05 09:30 50.08076 19.80664 936 ft 137 kts 256°
2026-05-05 09:31 50.07868 19.79196 803 ft 132 kts 257°
2026-05-05 09:31 50.07673 19.77747 1047 ft 150 kts 257°
2026-05-05 09:31 50.07484 19.76162 1672 ft 159 kts 257°
2026-05-05 09:31 50.07261 19.74441 2357 ft 168 kts 256°
2026-05-05 09:32 50.07013 19.72658 3022 ft 177 kts 255°
2026-05-05 09:32 50.06737 19.70869 3969 ft 166 kts 253°
2026-05-05 09:32 50.06492 19.68919 4071 ft 200 kts 258°
2026-05-05 09:32 50.06269 19.66724 3955 ft 212 kts 259°
2026-05-05 09:33 50.06033 19.64407 3976 ft 219 kts 258°
2026-05-05 09:33 50.05793 19.62072 3976 ft 219 kts 258°
2026-05-05 09:33 50.05442 19.59798 3976 ft 216 kts 248°
2026-05-05 09:33 50.04910 19.57622 3973 ft 216 kts 248°
2026-05-05 09:34 50.04478 19.55366 3973 ft 218 kts 253°
2026-05-05 09:34 50.04151 19.53068 3972 ft 217 kts 256°
2026-05-05 09:34 50.03848 19.50750 3971 ft 222 kts 256°
2026-05-05 09:34 50.03525 19.48315 4323 ft 241 kts 256°
2026-05-05 09:35 50.03217 19.45823 4911 ft 235 kts 262°
2026-05-05 09:35 50.04690 19.41654 4971 ft 239 kts 337°
2026-05-05 09:35 50.06336 19.41495 4973 ft 244 kts 15°
2026-05-05 09:36 50.07951 19.42280 4969 ft 244 kts 11°
2026-05-05 09:36 50.09626 19.42452 4974 ft 243 kts 358°
2026-05-05 09:36 50.11320 19.42339 4972 ft 243 kts 356°
2026-05-05 09:36 50.13000 19.42207 4974 ft 243 kts 356°
2026-05-05 09:37 50.14688 19.42073 4971 ft 243 kts 356°
2026-05-05 09:37 50.16385 19.42099 4968 ft 244 kts 13°
2026-05-05 09:37 50.17881 19.43287 4980 ft 242 kts 42°
2026-05-05 09:37 50.19094 19.45049 4976 ft 240 kts 46°
2026-05-05 09:38 50.20300 19.46894 4977 ft 241 kts 46°
2026-05-05 09:38 50.21464 19.48747 4979 ft 239 kts 54°
2026-05-05 09:38 50.22342 19.50926 4982 ft 239 kts 65°
2026-05-05 09:38 50.23088 19.53237 4984 ft 238 kts 67°
2026-05-05 09:39 50.23816 19.55541 4985 ft 238 kts 66°
2026-05-05 09:39 50.24546 19.57853 4987 ft 238 kts 66°
2026-05-05 09:39 50.25279 19.60175 4988 ft 238 kts 66°
2026-05-05 09:39 50.26008 19.62486 4987 ft 238 kts 66°
2026-05-05 09:40 50.26743 19.64825 4988 ft 238 kts 66°
2026-05-05 09:40 50.27361 19.67176 4986 ft 234 kts 79°
2026-05-05 09:40 50.27631 19.69667 4987 ft 233 kts 86°
2026-05-05 09:40 50.27818 19.72182 4988 ft 232 kts 86°
2026-05-05 09:41 50.27971 19.74684 4989 ft 231 kts 94°
2026-05-05 09:41 50.27542 19.77021 4996 ft 225 kts 124°
2026-05-05 09:41 50.26808 19.79213 4993 ft 228 kts 113°
2026-05-05 09:41 50.26379 19.81594 4995 ft 230 kts 107°
2026-05-05 09:42 50.26010 19.84031 4995 ft 230 kts 106°
2026-05-05 09:42 50.25650 19.86424 4994 ft 229 kts 106°
2026-05-05 09:42 50.25279 19.88865 4996 ft 230 kts 107°
2026-05-05 09:42 50.24912 19.91278 4997 ft 230 kts 106°
2026-05-05 09:43 50.24538 19.93721 4995 ft 229 kts 106°
2026-05-05 09:43 50.24168 19.96120 4994 ft 229 kts 106°
2026-05-05 09:43 50.23791 19.98522 4993 ft 229 kts 106°
2026-05-05 09:43 50.23409 20.00929 4994 ft 229 kts 107°
2026-05-05 09:44 50.23028 20.03335 4990 ft 228 kts 106°
2026-05-05 09:44 50.22652 20.05732 4989 ft 228 kts 106°
2026-05-05 09:44 50.22274 20.08148 4971 ft 227 kts 106°
2026-05-05 09:44 50.21820 20.10471 4746 ft 223 kts 121°
2026-05-05 09:45 50.20741 20.12009 4585 ft 210 kts 161°
2026-05-05 09:45 50.19317 20.12196 4364 ft 205 kts 188°
2026-05-05 09:45 50.17953 20.11603 4101 ft 205 kts 200°
2026-05-05 09:45 50.16627 20.10871 3975 ft 201 kts 197°
2026-05-05 09:46 50.15326 20.10305 3981 ft 187 kts 194°
2026-05-05 09:46 50.14069 20.09848 3980 ft 184 kts 192°
2026-05-05 09:46 50.12859 20.09284 3978 ft 184 kts 205°
2026-05-05 09:46 50.11940 20.07910 3977 ft 187 kts 242°
2026-05-05 09:47 50.11589 20.05963 3951 ft 191 kts 256°
2026-05-05 09:47 50.11305 20.03941 3912 ft 194 kts 254°
2026-05-05 09:47 50.10999 20.01859 3584 ft 200 kts 255°
2026-05-05 09:47 50.10718 19.99781 3301 ft 189 kts 257°
2026-05-05 09:48 50.10461 19.97833 3055 ft 177 kts 256°
2026-05-05 09:48 50.10205 19.96020 2826 ft 167 kts 255°
2026-05-05 09:48 50.09964 19.94300 2613 ft 158 kts 256°
2026-05-05 09:48 50.09747 19.92685 2404 ft 147 kts 255°
2026-05-05 09:49 50.09535 19.91172 2222 ft 143 kts 255°
2026-05-05 09:49 50.09326 19.89671 2029 ft 143 kts 255°
2026-05-05 09:49 50.09119 19.88164 1850 ft 141 kts 256°
2026-05-05 09:49 50.08909 19.86664 1664 ft 143 kts 256°
2026-05-05 09:50 50.08707 19.85164 1481 ft 146 kts 255°
2026-05-05 09:50 50.08493 19.83650 1282 ft 139 kts 255°
2026-05-05 09:50 50.08286 19.82196 1126 ft 137 kts 255°
2026-05-05 09:50 50.08089 19.80722 939 ft 141 kts 255°
2026-05-05 09:51 50.07873 19.79223 803 ft 135 kts 255°
2026-05-05 09:51 50.07726 19.78186 802 ft 62 kts 258°
2026-05-05 09:51 50.07664 19.77739 802 ft 32 kts 259°
2026-05-05 09:51 50.07624 19.77432 802 ft 28 kts 257°
2026-05-05 09:52 50.07591 19.77219 802 ft 13 kts 258°
2026-05-05 09:52 50.07572 19.77077 802 ft 15 kts 258°
2026-05-05 09:52 50.07555 19.76954 802 ft 0 kts 257°
2026-05-05 09:52 50.07549 19.76913 802 ft 7 kts 253°
2026-05-05 09:53 50.07497 19.76845 802 ft 11 kts 181°
2026-05-05 09:53 50.07418 19.76873 802 ft 11 kts 167°
2026-05-05 09:53 50.07344 19.76898 802 ft 9 kts 161°
2026-05-05 09:53 50.07316 19.76931 802 ft 4 kts 121°
2026-05-05 09:54 50.07312 19.76947 802 ft 1 kts 103°
2026-05-05 09:54 50.07315 19.76985 802 ft 5 kts 69°
2026-05-05 09:54 50.07324 19.77071 802 ft 11 kts 81°
2026-05-05 09:54 50.07342 19.77203 802 ft 12 kts 79°
2026-05-05 09:55 50.07362 19.77358 802 ft 17 kts 78°
2026-05-05 09:55 50.07393 19.77573 802 ft 23 kts 80°
2026-05-05 09:55 50.07428 19.77822 802 ft 23 kts 78°
2026-05-05 09:55 50.07462 19.78066 802 ft 23 kts 78°
2026-05-05 09:56 50.07496 19.78314 802 ft 23 kts 78°
2026-05-05 09:56 50.07531 19.78562 802 ft 23 kts 77°
2026-05-05 09:56 50.07565 19.78814 802 ft 23 kts 77°
2026-05-05 09:56 50.07601 19.79065 802 ft 23 kts 78°
2026-05-05 09:57 50.07636 19.79317 802 ft 23 kts 78°
2026-05-05 09:57 50.07647 19.79399 802 ft 0 kts 79°
2026-05-05 09:57 50.07647 19.79402 802 ft 1 kts 77°
2026-05-05 09:57 50.07655 19.79436 802 ft 3 kts 73°
2026-05-05 09:58 50.07664 19.79515 802 ft 10 kts 79°
2026-05-05 09:58 50.07680 19.79626 802 ft 10 kts 77°
2026-05-05 09:58 50.07695 19.79737 802 ft 10 kts 79°
2026-05-05 09:58 50.07703 19.79842 802 ft 8 kts 111°
2026-05-05 09:59 50.07648 19.79883 802 ft 9 kts 168°
2026-05-05 09:59 50.07587 19.79905 802 ft 8 kts 167°
2026-05-05 09:59 50.07527 19.79926 802 ft 8 kts 167°
2026-05-05 09:59 50.07467 19.79947 802 ft 8 kts 168°
2026-05-05 10:00 50.07415 19.79973 802 ft 6 kts 145°
2026-05-05 10:00 50.07403 19.80030 802 ft 5 kts 81°
2026-05-05 10:00 50.07404 19.80073 802 ft 2 kts 103°
2026-05-05 10:00 50.07391 19.80092 802 ft 2 kts 156°
2026-05-05 10:01 50.07375 19.80100 802 ft 2 kts 167°
2026-05-05 10:01 50.07358 19.80106 802 ft 1 kts 165°
2026-05-05 10:01 50.07347 19.80111 802 ft 1 kts 166°
2026-05-05 10:01 50.07345 19.80111 802 ft 0 kts 166°